CDT,Max TemperatureF,Mean TemperatureF,Min TemperatureF,Max Dew PointF,MeanDew PointF,Min DewpointF,Max Humidity, Mean Humidity, Min Humidity, Max Sea Level PressureIn, Mean Sea Level PressureIn, Min Sea Level PressureIn, Max VisibilityMiles, Mean VisibilityMiles, Min VisibilityMiles, Max Wind SpeedMPH, Mean Wind SpeedMPH, Max Gust SpeedMPH,PrecipitationIn, CloudCover, Events, WindDirDegrees
2013-5-1,84,69,54,65,60,47,90,67,43,30.06,29.89,29.80,10,10,7,24,13,30,0.00,2,,145
2013-5-2,54,45,36,45,39,35,100,86,71,30.41,30.31,30.10,10,7,2,31,19,38,0.28,8,Rain-Snow,347
2013-5-3,61,49,36,36,32,26,92,60,27,30.35,30.15,29.97,10,10,9,35,15,42,T,4,Rain,333
2013-5-4,52,46,40,46,42,35,100,83,65,30.06,29.96,29.91,10,8,2,22,11,27,0.19,8,Rain,327
2013-5-5,60,52,44,50,47,42,100,85,69,30.14,30.09,30.06,10,9,5,15,8,18,T,7,,334
2013-5-6,69,57,44,54,50,45,100,79,57,30.14,30.08,30.01,10,7,1,12,6,13,0.00,4,,343
2013-5-7,77,61,45,56,50,45,100,70,39,30.09,30.03,29.94,10,6,0,13,4,17,0.00,2,Fog,137
2013-5-8,83,70,57,63,55,48,80,58,36,30.01,29.91,29.84,10,10,7,26,12,31,0.20,3,Rain-Thunderstorm,149
2013-5-9,73,66,59,66,63,57,100,85,70,29.95,29.91,29.81,10,6,2,30,7,39,0.69,7,Rain-Thunderstorm,216
2013-5-10,73,64,54,64,58,52,100,81,61,30.07,29.98,29.90,10,9,6,20,8,23,0.00,5,,347
2013-5-11,77,63,49,59,49,38,100,66,31,30.23,30.13,30.07,10,10,9,23,8,29,0.00,1,,331
2013-5-12,71,56,40,47,42,37,100,66,32,30.29,30.21,30.12,10,10,10,15,6,20,0.00,1,,95
2013-5-13,88,69,50,56,49,43,83,56,29,30.12,30.05,29.97,10,10,10,17,9,24,0.00,0,,175
2013-5-14,91,78,65,55,50,46,52,39,26,30.02,29.95,29.88,10,10,10,28,13,37,0.00,0,,193
2013-5-15,76,73,69,67,63,51,84,65,46,29.95,29.89,29.78,10,7,2,20,14,24,0.10,7,Rain-Thunderstorm,154
2013-5-16,75,69,63,64,62,60,93,81,68,29.87,29.83,29.78,10,10,7,14,5,20,0.01,7,Rain,110
2013-5-17,81,70,58,68,63,57,100,84,67,29.92,29.87,29.82,10,6,0,14,6,18,0.00,5,Fog,122
2013-5-18,87,78,69,73,70,67,97,78,59,29.85,29.79,29.69,7,5,3,33,14,49,0.07,5,,153
2013-5-19,83,75,66,69,66,59,93,76,58,29.85,29.70,29.57,10,9,5,36,15,47,0.10,6,Rain-Thunderstorm,161
2013-5-20,84,76,68,73,69,66,93,80,67,29.76,29.68,29.61,10,7,2,21,12,36,0.09,7,Rain-Thunderstorm,154
2013-5-21,69,63,57,68,61,58,100,91,81,29.90,29.79,29.70,10,8,2,23,7,31,0.38,7,Rain-Thunderstorm,266
2013-5-22,79,72,64,58,56,54,100,73,45,29.91,29.86,29.79,10,10,7,13,6,17,0.00,1,,255
2013-5-23,67,62,57,62,58,54,100,84,67,30.12,30.03,29.91,10,9,3,22,7,28,0.21,6,Rain-Thunderstorm,358
2013-5-24,79,69,58,66,61,56,90,76,62,30.20,30.14,30.09,10,10,9,17,10,22,0.00,6,,110
2013-5-25,84,74,64,67,61,56,79,67,55,30.17,30.10,29.99,10,10,9,23,13,29,0.00,6,,156
2013-5-26,85,77,69,69,66,63,84,71,58,30.04,29.98,29.90,10,9,7,26,15,33,0.00,5,,170
2013-5-27,84,77,70,68,66,63,90,73,55,29.91,29.81,29.68,10,9,6,31,19,40,0.00,3,,170
2013-5-28,82,79,75,67,66,64,74,65,55,29.77,29.74,29.69,10,9,7,33,19,39,0.00,5,,173
2013-5-29,80,72,64,67,65,61,100,84,67,29.81,29.75,29.66,10,8,5,29,17,39,0.30,7,Rain-Thunderstorm,163
2013-5-30,84,74,64,73,68,63,100,85,70,29.77,29.68,29.62,10,7,1,37,15,47,1.78,7,Rain-Thunderstorm,146
2013-5-31,87,78,69,74,73,69,100,82,63,29.75,29.67,29.55,10,9,7,25,16,34,0.01,6,Rain-Thunderstorm,178